sat.trackr.live / text

‹ back to catalog

IRIS-F2

NORAD 62684 · 2025-009CD

PAYLOAD ACTIVE UNKNOWN

§ Identity

Operator
Country
ROC
Launch date
2025-01-14
Launch site
AFWTR
Launch vehicle
Mass (kg)
RCS (m²)

External: N2YO · Heavens-Above · Gunter

§ Orbital elements

Epoch: 2026-09-22T17:18:46.404288Z

Period
94.19 min
Inclination
97.3831°
Eccentricity
0.0005249
Mean motion
15.28745706 rev/d
Perigee alt
476.0 km
Apogee alt
483.2 km
Semi-major
6,857.7 km
B*
2.2751e-4
RAAN
344.6113°
Arg perigee
23.6458°
Mean anomaly
336.5022°
Rev number
15,135

§ Raw data

IRIS-F21 62684U 25009CD  26265.72137042  .00006284  00000+0  22751-3 0  99982 62684  97.3831 344.6113 0005249  23.6458 336.5022 15.28745706151350

JSON: /api/v1/satellites/62684 · /tle

For live sub-satellite position, see the globe view (requires WebGL).

§ Visibility from observer

Set your observer location to see the next 7 days of passes ≥ 10°. The values pass through the URL so the page stays shareable.

No JS? Fill the form by hand. The geolocation button needs JavaScript.

§ Radio — SatNOGS DB

ModeDescriptionDownlinkUplink
FM Mode S - Transmitter 2.280 GHz
BPSK Mode U - BPSK4k8 400.910 MHz

2 transmitters · refreshed weekly from db.satnogs.org